Location: München
(48.1351°N, 11.5820°E)
Time: 05:16:50
(UTC+02:00)

ISS - Pass Details

Date: 21 May 2021
Orbit: 417 x 422 km, 51.6° (Epoch: 13 June)

Event Time Altitude Azimuth Distance (km) Brightness Sun altitude
Rises 23:44:19 0° 289° (WNW) 2,367 0.7 -18.8°
Reaches altitude 10° 23:46:26 10° 294° (WNW) 1,503 -0.3 -19.0°
Maximum altitude 23:49:46 55° 13° (NNE) 513 -3.1 -19.2°
Enters shadow 23:51:11 29° 78° (ENE) 794 -2.5 -19.2°
